Regional Weather Roundup
Issued by NWS Portland, ME

Current Version | Previous Version | Text Only | Print | Product List | Glossary Off
Versions: 1 2 3 4 5 6 7 8 9 10 11 12 13 14 15 16 17 18 19 20 21 22 23 24 25 26 27 28 29 30 31 32 33 34 35 36 37 38 39 40 41 42 43 44 45 46 47 48 49 50
000 ASUS41 KGYX 200905 RWRGYX WEATHER ROUNDUP FOR MAINE AND NEW HAMPSHIRE NATIONAL WEATHER SERVICE GRAY ME 500 AM EDT THU SEP 20 2018 MEZ002-005-006-010-012-015-018-020-021-024-026-027-029-201000- MAINE CITY SKY/WX TMP DP RH WIND PRES REMARKS PORTLAND LGT RAIN 56 55 97 NE10 30.18F FOG SANFORD CLOUDY 56 55 97 NE6 30.18F BAR HARBOR CLOUDY 52 48 86 NE7 30.21R WISCASSET LGT RAIN 55 53 93 CALM 30.21R ROCKLAND CLOUDY 55 50 83 NE6 30.19R FRYEBURG CLOUDY 57 52 83 CALM 30.19S LEWISTONAUBURN CLOUDY 55 52 89 VRB6 30.20R AUGUSTA CLOUDY 54 51 90 N7 30.21R WATERVILLE CLOUDY 52 49 89 NE8 30.19R BANGOR FAIR 48 46 93 N7 30.23R GREENVILLE N/A 46 45 96 SE7 30.18F MILLINOCKET CLOUDY 48 44 86 NE5 30.24S HOULTON CLOUDY 46 44 93 NE3 30.22S PRESQUE ISLE CLOUDY 46 43 89 CALM 30.25S FRENCHVILLE CLOUDY 45 39 79 E5 30.22S CARIBOU CLOUDY 46 42 86 CALM 30.23S $$ NHZ002-005-008-009-011-012-014-201000- NEW HAMPSHIRE CITY SKY/WX TMP DP RH WIND PRES REMARKS ROCHESTER CLOUDY 56 55 97 NE6 30.17R NASHUA CLOUDY 58 56 93 N3 30.17R MANCHESTER CLOUDY 59 55 87 N6 30.15R CONCORD CLOUDY 58 54 86 CALM 30.17R LACONIA CLOUDY 58 53 84 NE9 30.17 PLYMOUTH CLOUDY 55 53 91 CALM 30.17R BERLIN CLOUDY 53 51 93 CALM 30.18R WHITEFIELD CLOUDY 52 51 97 CALM 30.17R JAFFREY CLOUDY 57 55 93 CALM 30.17R KEENE CLOUDY N/A N/A N/A CALM 30.16R LEBANON CLOUDY 56 50 80 CALM 30.16S MT WASHINGTON MOCLDY 41 23 48 NW17 N/A $$ VTZ005-007-008-201000- VERMONT CITY SKY/WX TMP DP RH WIND PRES REMARKS ST JOHNSBURY N/A 54 53 97 MISG 30.14F MONTPELIER CLOUDY 52 52 100 S3 30.19S BURLINGTON CLOUDY 54 51 90 CALM 30.16S $$ MAZ007-012-024-CTZ003-RIZ002-NYZ038-NYZ072-201000- SOUTHERN NEW ENGLAND AND NY CITY SKY/WX TMP DP RH WIND PRES REMARKS BOSTON MOCLDY 60 56 86 N13 30.15R WORCESTER CLOUDY 55 54 96 NE8 30.15R NANTUCKET LGT RAIN 62 61 96 NE9 30.06S FOG PROVIDENCE FAIR 59 56 89 N9 30.13S HARTFORD CLOUDY 61 55 81 NE5 30.14R ALBANY CLOUDY 58 49 72 N5 30.14F NEW YORK CITY CLOUDY 66 57 72 E9 30.11R $$ ANZ081-ANZ082-ANZ150-NHZ014-MEZ023>029-201000- COASTAL MARINE OBSERVATIONS STATION/POSITION TIME TEMP WIND PRES WAVE AIR SEA DIR/SP/G HT/PER (UTC) (F) (DEG/KT/KT) (MB) (FT/S) MOUNT DESERT ROC 0800 54 30/ 21/ 24 1021.0R MATINICUS ROCK 0800 55 50/ 20/ 22 1020.8R ISLE OF SHOALS 0800 59 60/ 19/ 21 1020.3R JEFFREYS LEDGE 0836 64 N/A 6/ 7 $$ .............KEY.............. WCI - WIND CHILL TC - TEMPERATURE IN CELSIUS VSB - VISIBILITY IN MILES HX - HEAT INDEX FAIR- INDICATES FEW OR NO CLOUDS BELOW 12,000 FT, WITH NO SIGNIFICANT WEATHER AND/OR OBSTRUCTIONS TO VISIBILITY.

USA.gov is the U.S. government's official web portal to all federal, state and local government web resources and services.